Bellingham, WA

1:44 AM PDT on September 22, 2017 (GMT -0700)
Bellingham International

Weather History for KBLI - July, 2013

Change the Weather History Date:

Wednesday, July 3, 2013

  Actual Average Record
Temperature  
Mean Temperature 66 °F 61 °F  
Max Temperature 75 °F 69 °F 84 °F (1968)
Min Temperature 56 °F 52 °F 41 °F (1963)
Degree Days  
Heating Degree Days 0 4  
Month to date heating degree days 0 12  
Since 1 June heating degree days 135 213  
Cooling Degree Days 1 0  
Month to date cooling degree days 9 0  
Year to date cooling degree days 23 4  
Since 1 June cooling degree days 23 4  
Growing Degree Days 16 (Base 50)    
Moisture  
Dew Point 51 °F    
Average Humidity 62    
Maximum Humidity 80    
Minimum Humidity 43    
Precipitation  
Precipitation 0.00 in 0.04 in 1.39 in (1982)
Month to date precipitation 0.00 0.14  
Year to date precipitation 14.86 18.08  
Sea Level Pressure  
Sea Level Pressure 30.12 in    
Wind  
Wind Speed 7 mph (South)    
Max Wind Speed 15 mph    
Max Gust Speed 28 mph    
Visibility 10 miles    
Events      
T = Trace of Precipitation, MM = Missing Value Source: NWS Daily Summary

Daily Weather History Graph

Daily Weather History Graph

Search for Another Location

Airport or City:

Trip Planner

Search our weather history database for the weather conditions in past years. The results will help you decide how hot, cold, wet, or windy it might be!

Date:

Astronomy

Jul. 03, 2013 Rise Set
Actual Time 5:12 AM PDT 9:15 PM PDT
Civil Twilight 4:30 AM PDT 9:57 PM PDT
Nautical Twilight 3:31 AM PDT 10:56 PM PDT
Astronomical Twilight 1:42 AM PDT 12:42 AM PDT
Moon 2:04 AM PDT (7/3) 5:23 PM PDT (7/3)
Length of Visible Light 17h 27m
Length of Day
16h 03m
Waning Crescent, 17% of the Moon is Illuminated
Jul 3
Waning Crescent
Jul 8
New
Jul 15
First Quarter
Jul 22
Full
Jul 29
Last Quarter

Hourly Weather History & Observations

Time (PDT) Temp. Dew Point Humidity Pressure Visibility Wind Dir Wind Speed Gust Speed Precip Events Conditions
12:53 AM 60.1 °F 50.0 °F 69% 30.09 in 10.0 mi South 9.2 mph - N/A   Clear
1:53 AM 59.0 °F 50.0 °F 72% 30.11 in 10.0 mi South 9.2 mph - N/A   Clear
2:53 AM 59.0 °F 52.0 °F 78% 30.12 in 10.0 mi South 6.9 mph - N/A   Clear
3:53 AM 57.0 °F 51.1 °F 81% 30.13 in 10.0 mi South 8.1 mph - N/A   Clear
4:53 AM 57.0 °F 52.0 °F 83% 30.14 in 10.0 mi South 9.2 mph - N/A   Clear
5:53 AM 57.0 °F 52.0 °F 83% 30.15 in 10.0 mi South 6.9 mph - N/A   Clear
6:53 AM 57.9 °F 52.0 °F 81% 30.16 in 10.0 mi South 6.9 mph - N/A   Clear
7:53 AM 60.1 °F 53.1 °F 78% 30.17 in 10.0 mi South 5.8 mph - N/A   Clear
8:53 AM 63.0 °F 53.1 °F 70% 30.17 in 10.0 mi South 6.9 mph - N/A   Clear
9:53 AM 64.0 °F 53.1 °F 67% 30.17 in 10.0 mi South 4.6 mph - N/A   Clear
10:53 AM 66.0 °F 54.0 °F 65% 30.17 in 10.0 mi Variable 5.8 mph - N/A   Clear
11:53 AM 69.1 °F 55.0 °F 61% 30.16 in 10.0 mi South 4.6 mph - N/A   Clear
12:53 PM 71.1 °F 55.0 °F 57% 30.15 in 10.0 mi Variable 6.9 mph - N/A   Clear
1:53 PM 73.0 °F 51.1 °F 46% 30.14 in 10.0 mi West 8.1 mph - N/A   Clear
2:53 PM 75.0 °F 51.1 °F 43% 30.12 in 10.0 mi Variable 3.5 mph - N/A   Clear
3:53 PM 72.0 °F 51.1 °F 48% 30.11 in 10.0 mi South 6.9 mph - N/A   Clear
4:53 PM 71.1 °F 53.1 °F 53% 30.09 in 10.0 mi SSE 8.1 mph - N/A   Clear
5:53 PM 70.0 °F 52.0 °F 53% 30.07 in 10.0 mi South 8.1 mph - N/A   Clear
6:53 PM 70.0 °F 50.0 °F 49% 30.06 in 10.0 mi South 11.5 mph 18.4 mph N/A   Clear
7:53 PM 68.0 °F 46.9 °F 47% 30.06 in 10.0 mi South 10.4 mph 19.6 mph N/A   Clear
8:53 PM 64.0 °F 48.9 °F 58% 30.05 in 10.0 mi South 9.2 mph 17.3 mph N/A   Clear
9:53 PM 63.0 °F 48.9 °F 60% 30.06 in 10.0 mi South 10.4 mph 18.4 mph N/A   Clear
10:53 PM 62.1 °F 48.0 °F 60% 30.06 in 10.0 mi South 9.2 mph 27.6 mph N/A   Clear
11:53 PM 59.0 °F 46.9 °F 64% 30.07 in 10.0 mi SSE 3.5 mph - N/A   Clear